User: anonymous   Login
Location: Arthez
(43.0833°N, 0.2500°W)
Time: 16:06:53
(UTC+00:00)
Language:

Cosmos 2344 - Orbit

View from above orbital plane
View from above orbital plane
View from above satellite
View from above satellite

Ground track
Ground track

The orbit data is extracted from the following two-line orbital elements,

1 24827U 97028A   22024.39048444 -.00000208  00000-0 -19091-2 0  9999
2 24827  63.3176  15.8116 1046148  49.0454  49.8297 11.07945642996746
Epoch (UTC): 24 January 2022 09:22:17
Eccentricity: 0.1046148
inclination: 63.3176°
perigee height: 1232 km
apogee height: 3010 km
right ascension of ascending node: 15.8116°
argument of perigee: 49.0454°
revolutions per day: 11.07945642
mean anomaly at epoch: 49.8297°
orbit number at epoch: 99674

The dashed part of the orbit path shows where the satellite is in the earth's shadow,  

DLR